User: anonymous   Login
Location: Lake Runnemede Observatory
(43.4843°N, 72.3851°W)
Time: 12:21:50
(UTC-04:00)
Language:

SPOT 5 - Orbit

View from above orbital plane
View from above orbital plane
View from above satellite
View from above satellite

Ground track
Ground track

The orbit data is extracted from the following two-line orbital elements,

1 27421U 02021A   17080.75719071 +.00000011 +00000-0 +14541-4 0  9995
2 27421 098.4160 143.9182 0134173 235.8892 122.9507 14.51846255772980
Epoch (UTC): 21 March 2017 18:10:21
Eccentricity: 0.0134173
inclination: 98.4160°
perigee height: 624 km
apogee height: 815 km
right ascension of ascending node: 143.9182°
argument of perigee: 235.8892°
revolutions per day: 14.51846255
mean anomaly at epoch: 122.9507°
orbit number at epoch: 77298

The dashed part of the orbit path shows where the satellite is in the earth's shadow,  

DLR